Regional Weather Roundup
Issued by NWS

Home | Current Version | Previous Version | Graphics & Text | Print | Product List | Glossary On
Versions: 1 2 3 4 5 6 7 8 9 10 11 12 13 14 15 16 17 18 19 20 21 22 23 24 25 26 27 28 29 30 31 32 33 34 35 36 37 38 39 40 41 42 43 44 45 46 47 48 49 50
000
ASUS43 KDTX 040110
RWRMI
MICHIGAN HOURLY REGIONAL WEATHER ROUNDUP
NATIONAL WEATHER SERVICE DETROIT/PONTIAC MI
900 PM EDT TUE MAY 03 2016

NOTE: "FAIR" INDICATES FEW OR NO CLOUDS BELOW 12,000 FEET WITH NO
SIGNIFICANT WEATHER AND/OR OBSTRUCTION TO VISIBILITY.

MIZ047>049-052>055-059>063-066>070-074>076-081>083-040200-
SOUTHEAST LOWER MICHIGAN

CITY           SKY/WX    TMP DP  RH WIND       PRES   REMARKS
ADRIAN         PTCLDY    55  42  61 SW9       29.80S
ALMA           MOCLDY    58  33  39 SW8       29.74S
ANN ARBOR      CLOUDY    57  37  47 SW6       29.77F
BAD AXE        CLOUDY    59  37  44 SW7       29.72S
CARO           CLOUDY    59  36  41 SW7       29.72S
DETROIT CITY   CLEAR     54  39  57 S9        29.79S
DETROIT        MOCLDY    55  44  66 SE9       29.79S
FLINT          CLEAR     60  35  39 S5        29.75S
GROSSE ILE     CLEAR     52  46  82 SE8       29.78F
HILLSDALE      CLEAR     57  32  38 SW5       29.79S
HOWELL         CLOUDY    57  35  43 SW3       29.77R

CITY           SKY/WX    TMP DP  RH WIND       PRES   REMARKS
JACKSON        CLEAR     56  36  47 SW5       29.77S
LAMBERTVILLE   CLEAR     58  40  49 CALM      29.81R
LANSING        PTCLDY    59  33  37 SW7       29.76S
LAPEER         FAIR      55  37  50 S6        29.75S
MASON          CLEAR     54  43  66 S3        29.76F
MONROE         CLEAR     54  46  75 S13       29.79S
MT. CLEMENS    CLEAR     53  44  71 S12       29.77S
PONTIAC        MOCLDY    58  41  53 S9        29.76S
PORT HOPE        N/A     54  40  59 S6        29.70S
PORT HURON     CLEAR     54  43  66 S12       29.78S
TRI CITIES     CLOUDY    62  34  35 SW9       29.73R
MIDLAND        FAIR      61  35  37 SW7       29.71S
TROY           CLEAR     57  40  53 S8        29.80S
SAGINAW HB     CLOUDY    61  36  39 SW8       29.73R
$$
MIZ043>046-050>051-056>058-064>065-071>073-077>080-040200-
SOUTHWEST LOWER MICHIGAN

CITY           SKY/WX    TMP DP  RH WIND       PRES   REMARKS
BATTLE CREEK   CLOUDY    57  35  43 SW8       29.78S
BENTON HARBOR  CLOUDY    61  37  41 S7        29.77F
BIG RAPIDS     PTCLDY    58  33  38 SW6       29.71F
COLDWATER      CLOUDY    56  37  50 SW3       29.79S
FREMONT        FAIR      55  34  45 SW9       29.72F
HOLLAND        PTCLDY    58  36  43 SW12      29.75F
GRAND RAPIDS   CLOUDY    60  37  42 S7        29.75F
IONIA          FAIR      56  35  46 SW8       29.74F
KALAMAZOO      CLOUDY    58  35  42 SW7       29.78S
LUDINGTON      CLOUDY    56  37  50 SW13G20   29.69F
MARSHALL       CLOUDY    55  35  46 W5        29.77S
MOUNT PLEASANT PTCLDY    58  36  43 SW7       29.72S
MUSKEGON       CLOUDY    56  35  45 S15       29.72F
SOUTH HAVEN    CLOUDY    60  36  40 SW6       29.76F
$$
MIZ016>042-040200-
NORTHERN LOWER MICHIGAN

CITY           SKY/WX    TMP DP  RH WIND       PRES   REMARKS
ALPENA         CLOUDY    61  34  36 NW10G17   29.67R
BEAVER ISLAND  MIX PCPN  46  45  94 W3        29.70S
BELLAIRE       CLOUDY    51  42  71 CALM      29.72R
CADILLAC       CLOUDY    57  36  45 SW7       29.70R
CHARLEVOIX     CLOUDY    46  42  85 SW3       29.74S
FRANKFORT      LGT RAIN  48  42  79 W5        29.72R
GAYLORD        LGT RAIN  50  43  77 NW3       29.71R
GRAYLING       CLOUDY    59  36  41 W9        29.70R
HARBOR SPRINGS DRIZZLE   43  40  90 CALM      29.71S
HOUGHTON LAKE  CLOUDY    59  36  42 SW9       29.69S
MANISTEE       CLOUDY    54  39  58 W6        29.72R
OSCODA         CLOUDY    60  38  43 SW8       29.67S
PELLSTON       LGT RAIN  49  45  86 NW7       29.70S
ROGERS CITY    CLOUDY    56  37  47 W12G22    29.69R
TRAVERSE CITY  CLOUDY    60  37  42 W12       29.68R
$$
MIZ007>008-015-040200-
EASTERN UPPER MICHIGAN

CITY           SKY/WX    TMP DP  RH WIND       PRES   REMARKS
KINROSS          N/A     48  48 100 SW3       29.67S
MACKINAC ISLAN LGT RAIN  45  45 100 SW6       29.69S
NEWBERRY       CLOUDY    48  47  97 SW5       29.66S
S. S. MARIE    CLOUDY    48  45  89 W3        29.66S
MUNISING         N/A     45  41  86 NW8       29.68R
$$
MIZ004>006-011>014-085-040200-
CENTRAL UPPER MICHIGAN

CITY           SKY/WX    TMP DP  RH WIND       PRES   REMARKS
MANISTIQUE     CLOUDY    47  46  97 S6        29.66F
ESCANABA       CLOUDY    48  46  93 SW3       29.67R
MENOMINEE      CLOUDY    50  49  96 CALM      29.69S
SAWYER-GWINN   CLOUDY    45  43  93 N5        29.67R
$$
MIZ001>003-009>011-084-040200-
WESTERN UPPER MICHIGAN

CITY           SKY/WX    TMP DP  RH WIND       PRES   REMARKS
IRON MOUNTAIN  CLOUDY    47  44  90 CALM      29.68R
HOUGHTON       CLOUDY    47  39  74 N12G20    29.72R
COPPER HARBOR    N/A     43  36  76 NE21G28   29.72R
IRONWOOD         N/A     54  36  50 N7        29.69R
$$

ABBREVIATIONS USED IN REMARKS
   TC - TEMPERATURE IN CELSIUS
  WCI - WIND CHILL INDEX
   HX - HEAT INDEX
  VSB - VISIBILITY




USA.gov is the U.S. government's official web portal to all federal, state and local government web resources and services.